• In Czech Republic
  • List of Countries
  • For 7 days
  • Water Temperature
  • Satellite Maps
  • Weather Map
  • Weather Widgets
  • user-avatar
    Login

    Hourly Weather Waterbury

    Today, 21 July, Saturday

    Time Temperature Precipitation Wind Pressure Humidity
    00:00 +18°C° 0 mm 1 mps 752 mmHg 83%
    01:00 +18°C° 0 mm 1 mps 751 mmHg 86%
    02:00 +16°C° 0 mm 1 mps 751 mmHg 87%
    03:00 +16°C° 0 mm 1 mps 752 mmHg 89%
    04:00 +16°C° 0 mm 1 mps 752 mmHg 90%
    05:00 +18°C° 0 mm 1 mps 752 mmHg 83%
    06:00 +20°C° 0 mm 1 mps 752 mmHg 77%
    07:00 +20°C° 0 mm 2 mps 752 mmHg 71%
    08:00 +23°C° 0 mm 2 mps 752 mmHg 62%
    09:00 +24°C° 0 mm 3 mps 751 mmHg 53%
    10:00 +26°C° 0 mm 3 mps 751 mmHg 45%
    11:00 +26°C° 0 mm 4 mps 751 mmHg 43%
    12:00 +27°C° 0 mm 4 mps 751 mmHg 40%
    13:00 +28°C° 0 mm 4 mps 751 mmHg 38%
    14:00 +27°C° 0 mm 4 mps 750 mmHg 41%
    15:00 +27°C° 0 mm 5 mps 750 mmHg 44%
    16:00 +26°C° 0 mm 5 mps 749 mmHg 47%
    17:00 +25°C° 0 mm 5 mps 749 mmHg 54%
    18:00 +22°C° 0 mm 5 mps 749 mmHg 62%
    19:00 +21°C° 0 mm 5 mps 748 mmHg 70%
    20:00 +20°C° 0.9 mm 5 mps 748 mmHg 77%
    21:00 +20°C° 0.9 mm 6 mps 748 mmHg 84%
    22:00 +19°C° 0.9 mm 6 mps 747 mmHg 91%
    23:00 +20°C° 4.6 mm 6 mps 746 mmHg 93%

    Tomorrow, 22 July, Sunday

    Time Temperature Precipitation Wind Pressure Humidity
    00:00 +20°C° 4.6 mm 7 mps 746 mmHg 95%
    01:00 +21°C° 4.6 mm 7 mps 745 mmHg 97%
    02:00 +22°C° 3 mm 7 mps 745 mmHg 97%
    03:00 +22°C° 3 mm 6 mps 745 mmHg 97%
    04:00 +23°C° 3 mm 5 mps 745 mmHg 97%
    05:00 +23°C° 0.1 mm 5 mps 745 mmHg 96%
    06:00 +23°C° 0.1 mm 4 mps 745 mmHg 95%
    07:00 +23°C° 0.1 mm 4 mps 746 mmHg 95%
    08:00 +26°C° 0 mm 4 mps 746 mmHg 85%
    09:00 +27°C° 0 mm 4 mps 747 mmHg 74%
    10:00 +29°C° 0 mm 4 mps 747 mmHg 64%
    11:00 +30°C° 0 mm 4 mps 748 mmHg 60%
    12:00 +32°C° 0 mm 4 mps 748 mmHg 55%
    13:00 +33°C° 0 mm 5 mps 748 mmHg 51%
    14:00 +33°C° 0 mm 5 mps 748 mmHg 54%
    15:00 +32°C° 0 mm 5 mps 748 mmHg 57%
    16:00 +32°C° 0 mm 5 mps 748 mmHg 60%
    17:00 +29°C° 0 mm 4 mps 749 mmHg 67%
    18:00 +28°C° 0 mm 4 mps 749 mmHg 74%
    19:00 +27°C° 0 mm 3 mps 749 mmHg 82%
    20:00 +26°C° 0 mm 3 mps 750 mmHg 84%
    21:00 +26°C° 0 mm 3 mps 750 mmHg 86%
    22:00 +25°C° 0 mm 3 mps 750 mmHg 88%
    23:00 +25°C° 0.5 mm 3 mps 750 mmHg 90%

    Day after tomorrow, 23 July, Monday

    Time Temperature Precipitation Wind Pressure Humidity
    00:00 +25°C° 0.5 mm 3 mps 750 mmHg 93%
    01:00 +24°C° 0.5 mm 2 mps 751 mmHg 95%
    02:00 +24°C° 0.8 mm 2 mps 751 mmHg 95%
    03:00 +24°C° 0.8 mm 2 mps 751 mmHg 96%
    04:00 +24°C° 0.8 mm 2 mps 751 mmHg 96%
    05:00 +25°C° 0.7 mm 3 mps 751 mmHg 95%
    06:00 +25°C° 0.7 mm 3 mps 752 mmHg 94%
    07:00 +26°C° 0.7 mm 4 mps 752 mmHg 93%
    08:00 +27°C° 0.7 mm 4 mps 752 mmHg 92%
    09:00 +27°C° 0.7 mm 4 mps 753 mmHg 91%
    10:00 +28°C° 0.7 mm 4 mps 753 mmHg 90%
    11:00 +28°C° 0.8 mm 4 mps 753 mmHg 89%
    12:00 +28°C° 0.8 mm 5 mps 753 mmHg 89%
    13:00 +28°C° 0.8 mm 5 mps 753 mmHg 88%
    14:00 +29°C° 0.8 mm 5 mps 753 mmHg 85%
    15:00 +29°C° 0.8 mm 5 mps 753 mmHg 81%
    16:00 +29°C° 0.8 mm 5 mps 753 mmHg 78%
    17:00 +28°C° 0.2 mm 4 mps 753 mmHg 80%
    18:00 +27°C° 0.2 mm 4 mps 754 mmHg 83%
    19:00 +26°C° 0.2 mm 3 mps 754 mmHg 85%
    20:00 +26°C° 0.1 mm 3 mps 754 mmHg 88%
    21:00 +25°C° 0.1 mm 3 mps 755 mmHg 92%
    22:00 +24°C° 0.1 mm 3 mps 755 mmHg 95%
    23:00 +24°C° 0.1 mm 2 mps 755 mmHg 96%

    24 July, Tuesday

    Time Temperature Precipitation Wind Pressure Humidity
    00:00 +24°C° 0.1 mm 2 mps 755 mmHg 97%
    01:00 +24°C° 0.1 mm 2 mps 755 mmHg 97%
    02:00 +24°C° 0 mm 2 mps 755 mmHg 97%
    03:00 +24°C° 0 mm 2 mps 755 mmHg 97%
    04:00 +23°C° 0 mm 2 mps 755 mmHg 97%
    05:00 +24°C° 0 mm 2 mps 755 mmHg 96%
    06:00 +25°C° 0 mm 2 mps 755 mmHg 95%
    07:00 +26°C° 0 mm 2 mps 756 mmHg 93%
    08:00 +27°C° 0.2 mm 3 mps 756 mmHg 85%
    09:00 +28°C° 0.2 mm 3 mps 756 mmHg 77%
    10:00 +30°C° 0.2 mm 4 mps 756 mmHg 69%
    11:00 +30°C° 0.6 mm 4 mps 756 mmHg 70%
    12:00 +30°C° 0.6 mm 4 mps 755 mmHg 72%
    13:00 +30°C° 0.6 mm 4 mps 755 mmHg 73%
    14:00 +30°C° 0.1 mm 4 mps 755 mmHg 69%
    15:00 +32°C° 0.1 mm 4 mps 755 mmHg 65%
    16:00 +32°C° 0.1 mm 4 mps 754 mmHg 61%
    17:00 +29°C° 0 mm 4 mps 754 mmHg 68%
    18:00 +28°C° 0 mm 3 mps 754 mmHg 76%
    19:00 +26°C° 0 mm 3 mps 754 mmHg 83%
    20:00 +25°C° 0 mm 2 mps 755 mmHg 88%
    21:00 +25°C° 0 mm 2 mps 755 mmHg 92%
    22:00 +24°C° 0 mm 2 mps 755 mmHg 97%
    23:00 +24°C° 0.1 mm 2 mps 755 mmHg 97%

    25 July, Wednesday

    Time Temperature Precipitation Wind Pressure Humidity
    00:00 +23°C° 0.1 mm 1 mps 755 mmHg 97%
    01:00 +23°C° 0.1 mm 1 mps 754 mmHg 97%
    02:00 +23°C° 0.1 mm 1 mps 754 mmHg 97%
    03:00 +23°C° 0.1 mm 1 mps 754 mmHg 98%
    04:00 +23°C° 0.1 mm 1 mps 754 mmHg 98%
    05:00 +24°C° 0 mm 2 mps 754 mmHg 96%
    06:00 +25°C° 0 mm 2 mps 754 mmHg 94%
    07:00 +25°C° 0 mm 2 mps 754 mmHg 92%
    08:00 +27°C° 0.1 mm 3 mps 754 mmHg 82%
    09:00 +28°C° 0.1 mm 4 mps 754 mmHg 72%
    10:00 +30°C° 0.1 mm 4 mps 754 mmHg 63%
    11:00 +30°C° 0.4 mm 4 mps 753 mmHg 66%
    12:00 +30°C° 0.4 mm 5 mps 753 mmHg 70%
    13:00 +29°C° 0.4 mm 5 mps 752 mmHg 74%
    14:00 +29°C° 0.3 mm 5 mps 752 mmHg 72%
    15:00 +29°C° 0.3 mm 5 mps 752 mmHg 70%
    16:00 +29°C° 0.3 mm 5 mps 752 mmHg 68%
    17:00 +28°C° 0.2 mm 4 mps 751 mmHg 73%
    18:00 +27°C° 0.2 mm 4 mps 751 mmHg 78%
    19:00 +26°C° 0.2 mm 3 mps 751 mmHg 83%
    20:00 +25°C° 0 mm 3 mps 751 mmHg 85%
    21:00 +25°C° 0 mm 3 mps 751 mmHg 87%
    22:00 +24°C° 0 mm 3 mps 751 mmHg 89%
    23:00 +23°C° 0.4 mm 4 mps 750 mmHg 90%

    26 July, Thursday

    Time Temperature Precipitation Wind Pressure Humidity
    00:00 +23°C° 0.4 mm 4 mps 750 mmHg 91%
    01:00 +23°C° 0.4 mm 5 mps 749 mmHg 92%
    02:00 +23°C° 3.5 mm 4 mps 749 mmHg 94%
    03:00 +23°C° 3.5 mm 4 mps 748 mmHg 96%
    04:00 +23°C° 3.5 mm 4 mps 748 mmHg 97%
    05:00 +24°C° 1.2 mm 3 mps 748 mmHg 97%
    06:00 +24°C° 1.2 mm 3 mps 748 mmHg 97%
    07:00 +24°C° 1.2 mm 3 mps 748 mmHg 96%
    08:00 +25°C° 0.7 mm 3 mps 748 mmHg 93%
    09:00 +26°C° 0.7 mm 3 mps 747 mmHg 90%
    10:00 +28°C° 0.7 mm 3 mps 747 mmHg 87%
    11:00 +28°C° 0.7 mm 3 mps 747 mmHg 86%
    12:00 +29°C° 0.7 mm 3 mps 747 mmHg 86%
    13:00 +29°C° 0.7 mm 4 mps 747 mmHg 85%
    14:00 +29°C° 1 mm 3 mps 746 mmHg 86%
    15:00 +29°C° 1 mm 3 mps 746 mmHg 86%
    16:00 +29°C° 1 mm 3 mps 746 mmHg 87%
    17:00 +28°C° 0.3 mm 3 mps 746 mmHg 87%
    18:00 +27°C° 0.3 mm 3 mps 746 mmHg 87%
    19:00 +27°C° 0.3 mm 3 mps 747 mmHg 88%
    20:00 +26°C° 0.1 mm 3 mps 747 mmHg 89%
    21:00 +26°C° 0.1 mm 3 mps 747 mmHg 90%
    22:00 +25°C° 0.1 mm 2 mps 747 mmHg 92%
    23:00 +25°C° 0.5 mm 2 mps 747 mmHg 93%
    Show more